[[{"header":{"parameterUnit":"m.s-1","parameterCategory":1,"la1":30.2991,"la2":30.254,"lo1":-89.0895,"lo2":-89.0444,"dy":0.0017,"dx":0.0017,"nx":28,"ny":28,"refTime":"2024-07-20T09:00:00:Z","depth":0,"parameterNumber":2,"parameterNumberName":"U-component_of_WINDS"},"data":[0,0,0,0,0,0,0,0,0,0,0,0,0,0,0,0,0,0,0,0,0,0,0,0,0,0,0,0,0,0,0,0,0,0,0,0,0,0,0,0,0,0,0,0,0,0,0,0,0,0,0,0,0,0,0,0,0,0,3.0763,3.0765,0,3.0909,3.0911,3.0912,3.0943,3.0942,3.0941,3.094,3.1092,3.1097,3.1101,0,0,0,0,0,0,0,0,0,0,0,0,0,3.0512,3.0517,3.0763,3.0765,3.0767,3.0909,3.0911,3.0913,3.0944,3.0942,3.0941,3.094,3.109,3.1096,3.1102,0,0,0,0,0,0,0,0,0,0,0,0,0,3.0636,3.0518,3.0763,3.0799,3.0804,3.0908,3.0911,3.0913,3.0944,3.0942,3.0941,3.0939,3.1088,3.1095,3.1103,3.1182,0,0,3.1126,3.1129,0,0,0,0,0,0,0,0,3.0629,3.0645,3.0792,3.0797,3.0802,3.0906,3.0878,3.1004,3.0944,3.0891,3.094,3.0938,3.1031,3.1044,3.1075,3.1189,3.1196,3.1127,3.1131,3.1134,3.1137,0,0,0,0,0,0,0,3.062,3.0639,3.0821,3.0794,3.08,3.0809,3.0824,3.0902,3.0969,3.0895,3.0898,3.0915,3.1034,3.1067,3.1078,3.1198,3.1126,3.1133,3.1138,3.1141,3.1385,3.1386,0,0,0,0,0,0,3.0605,3.0632,3.0816,3.0825,3.071,3.0814,3.0832,3.0875,3.0968,3.098,3.0916,3.0916,3.1055,3.1069,3.1084,3.1182,3.1134,3.1141,3.1146,3.1383,3.1385,3.1387,0,0,0,0,0,0,3.06,3.0621,3.081,3.0729,3.0754,3.082,3.0868,3.0878,3.0912,3.0983,3.0995,3.0937,3.1054,3.1073,3.1157,3.1188,3.1145,3.1152,3.138,3.1383,3.1386,3.138,0,0,0,0,0,0,3.0592,3.0619,3.065,3.073,3.0758,3.0881,3.087,3.0882,3.0924,3.0925,3.1007,3.1019,3.1054,3.1146,3.1165,3.1198,3.1158,3.1378,3.1382,3.1385,3.1378,3.1382,3.1386,0,0,0,0,0,3.0583,3.0643,3.0651,3.0673,3.0798,3.0882,3.0899,3.0938,3.0927,3.0958,3.1004,3.1016,3.1182,3.1154,3.1176,3.1211,3.1376,3.1381,3.1385,3.1376,3.1381,3.1386,0,0,0,0,0,0,3.0565,3.0654,3.0664,3.0751,3.0809,3.0887,3.0928,3.0943,3.1006,3.1004,3.1051,3.1069,3.115,3.1189,3.1157,3.1293,3.1278,3.1287,3.1264,3.127,3.1274,3.1263,3.1164,0,0,0,0,0,3.0571,3.0632,3.0707,3.0776,3.0805,3.0861,3.09,3.0925,3.0987,3.1012,3.1064,3.1124,3.119,3.1232,3.1297,3.1384,3.1402,3.1419,3.1423,3.1426,3.1433,3.1482,3.149,3.1401,3.1401,3.1401,0,0,3.0584,3.064,3.0676,3.0774,3.0822,3.0884,3.0882,3.0948,3.0995,3.1022,3.1104,3.1145,3.1215,3.1301,3.1341,3.1336,3.1462,3.1432,3.1434,3.1439,3.1487,3.1496,3.1503,3.1404,3.1404,3.1403,0,0,3.064,3.0689,3.0752,3.0799,3.0872,3.0909,3.0924,3.1001,3.1028,3.1111,3.1133,3.119,3.1302,3.1351,3.1391,3.1465,3.1478,3.1484,3.1507,3.1553,3.156,3.1567,3.1593,3.1602,3.1491,3.1491,3.1491,0,3.0647,3.0742,3.0782,3.0848,3.089,3.0917,3.0981,3.1026,3.1115,3.1144,3.1137,3.1278,3.1327,3.1424,3.1442,3.1474,3.1492,3.1475,3.1556,3.1563,3.1569,3.1595,3.1605,3.1491,3.1491,3.1491,3.1491,0,3.0747,3.0812,3.0855,3.094,3.0987,3.1052,3.1102,3.1145,3.1166,3.1204,3.1288,3.1349,3.1425,3.145,3.1472,3.1551,3.1545,3.1546,3.1533,3.1577,3.1602,3.1612,3.1492,3.1492,3.1492,3.1492,0,0,3.0795,3.0902,3.0916,3.0955,3.1037,3.1088,3.1154,3.1228,3.1264,3.1325,3.1382,3.1476,3.1477,3.1522,3.1549,3.1591,3.1645,3.1587,3.1589,3.1595,3.1735,3.1733,3.1744,3.1654,3.1656,3.1658,3.1729,0,3.086,3.0978,3.1016,3.1114,3.1175,3.1201,3.1259,3.1315,3.1352,3.141,3.1452,3.1517,3.1514,3.1541,3.1583,3.1629,3.1673,3.1625,3.1707,3.171,3.1688,3.1757,3.1755,3.1819,3.1739,3.1741,3.1742,0,3.0952,3.1014,3.1118,3.1191,3.1218,3.1269,3.134,3.1394,3.1459,3.1483,3.1533,3.1557,3.1627,3.161,3.1707,3.1673,3.1709,3.1737,3.174,3.1749,3.1728,3.1767,3.1841,3.185,3.1757,3.1756,3.1755,0,3.0976,3.1085,3.1162,3.1194,3.1282,3.1317,3.1355,3.1418,3.146,3.1523,3.1551,3.162,3.1659,3.1713,3.1755,3.1738,3.1848,3.1834,3.1871,3.187,3.1893,3.189,3.1972,3.1916,3.1916,3.1916,3.1916,0,3.1045,3.1107,3.1173,3.122,3.1291,3.1334,3.1403,3.1443,3.1499,3.1554,3.1582,3.1633,3.1686,3.1745,3.1779,3.1854,3.1871,3.1893,3.1901,3.189,3.1887,3.1914,3.1911,3.1919,3.1918,3.1918,3.1917,0,3.1083,3.113,3.1215,3.1291,3.1312,3.136,3.1426,3.1472,3.1511,3.158,3.1599,3.166,3.173,3.1778,3.1868,3.1891,3.1972,3.198,3.195,3.1954,3.1987,3.1983,3.2089,3.2105,3.2038,3.2039,3.2039,0,3.1123,3.1172,3.1253,3.1292,3.133,3.1392,3.1435,3.148,3.1524,3.1601,3.1638,3.171,3.177,3.1881,3.1933,3.2002,3.2012,3.2044,3.2022,3.201,3.2012,3.2008,3.2013,3.2047,3.2048,3.2048,3.2049,0,3.119,3.1211,3.1271,3.134,3.1391,3.1447,3.1504,3.1534,3.1589,3.1637,3.1709,3.1755,3.1847,3.1918,3.1992,3.2032,3.205,3.2055,3.2067,3.2056,3.2037,3.2047,3.1959,3.2052,3.2052,3.2052,3.2052,3.2051,3.1231,3.1275,3.1339,3.1405,3.1453,3.1505,3.1552,3.1596,3.1657,3.1734,3.1758,3.1832,3.1896,3.1997,3.2038,3.2097,3.2094,3.2112,3.2116,3.212,3.2119,3.2027,3.2111,3.2111,3.2111,3.2111,3.2111,0,3.1298,3.134,3.1401,3.148,3.1532,3.1544,3.1607,3.165,3.1715,3.1773,3.1831,3.1913,3.1982,3.204,3.2111,3.2147,3.2157,3.2165,3.2162,3.2171,3.2118,3.21,3.2155,3.2155,3.2155,3.2155,3.2155,3.2155,3.1339,3.1414,3.1443,3.1542,3.1584,3.1657,3.1692,3.174,3.1786,3.1877,3.1934,3.1971,3.2029,3.2104,3.2168,3.2184,3.2209,3.2214,3.2231,3.218,3.2175,3.217,3.2154,3.2219,3.2219,3.2279,3.228,3.228]},{"header":{"parameterUnit":"m.s-1","parameterCategory":1,"la1":30.2991,"la2":30.254,"lo1":-89.0895,"lo2":-89.0444,"dy":0.0017,"dx":0.0017,"nx":28,"ny":28,"refTime":"2024-07-20T09:00:00:Z","depth":0,"parameterNumber":3,"parameterNumberName":"V-component_of_WINDS"},"data":[0,0,0,0,0,0,0,0,0,0,0,0,0,0,0,0,0,0,0,0,0,0,0,0,0,0,0,0,0,0,0,0,0,0,0,0,0,0,0,0,0,0,0,0,0,0,0,0,0,0,0,0,0,0,0,0,0,0,3.7704,3.7704,0,3.7673,3.7673,3.7672,3.7673,3.7673,3.7673,3.7674,3.7635,3.7633,3.7632,0,0,0,0,0,0,0,0,0,0,0,0,0,3.7757,3.7757,3.7704,3.7704,3.7704,3.7673,3.7673,3.7672,3.7672,3.7673,3.7674,3.7674,3.7635,3.7634,3.7632,0,0,0,0,0,0,0,0,0,0,0,0,0,3.7731,3.7756,3.7704,3.77,3.77,3.7673,3.7673,3.7672,3.7672,3.7673,3.7674,3.7674,3.7636,3.7634,3.7632,3.7606,0,0,3.7625,3.7624,0,0,0,0,0,0,0,0,3.7733,3.7729,3.7701,3.77,3.77,3.7678,3.7677,3.765,3.7672,3.7682,3.7674,3.7675,3.7648,3.7645,3.7638,3.7604,3.7602,3.7625,3.7624,3.7623,3.7622,0,0,0,0,0,0,0,3.7734,3.773,3.7692,3.7701,3.77,3.7698,3.7695,3.7672,3.7662,3.7682,3.7682,3.7678,3.7648,3.764,3.7637,3.7602,3.7625,3.7623,3.7622,3.7621,3.7543,3.7542,0,0,0,0,0,0,3.7738,3.7732,3.7693,3.7691,3.7718,3.7696,3.7693,3.7684,3.7662,3.766,3.7678,3.7678,3.7643,3.7639,3.7635,3.7602,3.7623,3.7621,3.7619,3.7543,3.7543,3.7542,0,0,0,0,0,0,3.7739,3.7735,3.7694,3.7711,3.7706,3.7695,3.7685,3.7683,3.7675,3.7659,3.7657,3.7672,3.7643,3.7638,3.7613,3.7601,3.762,3.7618,3.7544,3.7543,3.7542,3.7536,0,0,0,0,0,0,3.7741,3.7735,3.7727,3.7711,3.7705,3.7675,3.7684,3.7682,3.7672,3.7673,3.7653,3.765,3.7643,3.7616,3.7611,3.7598,3.7616,3.7545,3.7544,3.7542,3.7537,3.7535,3.7533,0,0,0,0,0,3.7743,3.7725,3.7726,3.7721,3.7695,3.7674,3.767,3.7665,3.7671,3.7661,3.7651,3.7651,3.7603,3.7614,3.7608,3.7594,3.7546,3.7544,3.7543,3.7538,3.7535,3.7533,0,0,0,0,0,0,3.7737,3.7723,3.7724,3.7701,3.7689,3.7674,3.7662,3.7662,3.7646,3.7647,3.7638,3.7634,3.7608,3.7599,3.7611,3.7567,3.7575,3.7572,3.7574,3.7571,3.7569,3.7571,3.7614,0,0,0,0,0,3.7733,3.772,3.7707,3.7688,3.7682,3.7673,3.7664,3.7661,3.7647,3.7641,3.7629,3.7613,3.7595,3.7582,3.7564,3.7536,3.7531,3.7524,3.7521,3.752,3.7516,3.7499,3.7495,3.7536,3.7536,3.7536,0,0,3.7725,3.7716,3.7707,3.7687,3.7677,3.7661,3.7669,3.7651,3.7639,3.7637,3.7613,3.7604,3.7586,3.7559,3.7546,3.755,3.7504,3.7517,3.7516,3.7514,3.7497,3.7493,3.7489,3.7535,3.7535,3.7535,0,0,3.7702,3.7694,3.7677,3.7667,3.7653,3.7647,3.7643,3.7628,3.7622,3.7599,3.7597,3.758,3.7549,3.7536,3.7525,3.7496,3.7494,3.749,3.7478,3.7461,3.7458,3.7455,3.7443,3.7439,3.7488,3.7488,3.7488,0,3.7692,3.767,3.7668,3.7651,3.7641,3.7641,3.7623,3.7613,3.7592,3.7584,3.7589,3.755,3.7537,3.7506,3.75,3.7491,3.7484,3.7492,3.7459,3.7456,3.7453,3.7441,3.7437,3.7487,3.7487,3.7487,3.7487,0,3.7659,3.7643,3.7631,3.7614,3.7602,3.7585,3.7577,3.7566,3.7563,3.7556,3.753,3.7516,3.7495,3.7487,3.7484,3.7455,3.7458,3.7461,3.7469,3.7449,3.7437,3.7433,3.7486,3.7487,3.7487,3.7487,0,0,3.763,3.7612,3.7607,3.7599,3.7583,3.757,3.7551,3.7533,3.7522,3.7508,3.749,3.7464,3.7466,3.7454,3.7449,3.7435,3.7411,3.7439,3.7439,3.7433,3.7375,3.7372,3.7367,3.741,3.7409,3.7409,3.7376,0,3.7604,3.7573,3.757,3.7541,3.7526,3.7526,3.7509,3.7497,3.7489,3.7473,3.7463,3.7444,3.745,3.7443,3.7428,3.7417,3.7399,3.7419,3.7391,3.739,3.7394,3.7362,3.7358,3.7329,3.7372,3.7371,3.7371,0,3.7569,3.7556,3.7527,3.7513,3.7506,3.7491,3.7473,3.7459,3.7443,3.7438,3.7425,3.7422,3.74,3.741,3.7378,3.7392,3.738,3.7372,3.7371,3.7367,3.7378,3.7355,3.7319,3.7314,3.7364,3.7365,3.7365,0,3.7549,3.7524,3.7503,3.7496,3.7479,3.7469,3.7461,3.7446,3.7435,3.7418,3.7411,3.7391,3.738,3.7363,3.7354,3.7363,3.7321,3.7331,3.7314,3.7315,3.7305,3.7305,3.7265,3.73,3.73,3.73,3.73,0,3.752,3.7501,3.7494,3.7481,3.7459,3.7455,3.7433,3.7425,3.7412,3.7395,3.7394,3.7377,3.7367,3.7348,3.7341,3.7314,3.7309,3.7303,3.7301,3.7302,3.7303,3.7293,3.7294,3.7299,3.7299,3.7299,3.7299,0,3.7493,3.7488,3.7465,3.7452,3.7448,3.7432,3.7419,3.7405,3.7398,3.7377,3.7371,3.7359,3.7337,3.7327,3.7299,3.7294,3.7263,3.7263,3.7269,3.7268,3.7251,3.7252,3.7202,3.7194,3.7236,3.7235,3.7235,0,3.7474,3.746,3.7446,3.7436,3.7428,3.7412,3.7401,3.7395,3.7383,3.7364,3.7352,3.733,3.7313,3.7277,3.7264,3.7242,3.724,3.7224,3.7237,3.7238,3.7238,3.7238,3.7236,3.7221,3.7221,3.7221,3.722,0,3.744,3.7438,3.7424,3.7408,3.7395,3.7382,3.7368,3.736,3.7352,3.7338,3.7317,3.7303,3.7276,3.7253,3.7231,3.7219,3.7217,3.7217,3.7211,3.7212,3.7215,3.7211,3.7261,3.7218,3.7218,3.7218,3.7218,3.7218,3.7415,3.7402,3.739,3.7374,3.7364,3.7351,3.7337,3.7329,3.7312,3.7291,3.7288,3.7265,3.7248,3.7218,3.7206,3.7185,3.7189,3.7181,3.7179,3.7177,3.7175,3.722,3.7181,3.7181,3.7181,3.7181,3.7181,0,3.7379,3.7372,3.7357,3.7339,3.7326,3.7328,3.7314,3.7301,3.7282,3.7267,3.7251,3.7225,3.7203,3.7189,3.7166,3.7152,3.7151,3.7146,3.7146,3.7143,3.7174,3.7181,3.7148,3.7148,3.7148,3.7148,3.7148,3.7148,3.7359,3.7337,3.7334,3.7306,3.7298,3.7277,3.7268,3.7256,3.7244,3.7217,3.72,3.7192,3.7176,3.7152,3.7132,3.7128,3.7118,3.7113,3.7109,3.7138,3.7141,3.7145,3.715,3.7112,3.7112,3.7079,3.7079,3.7079]}]]